Temp
26 25 25 24 24 23 22 22 22 22 22 21 21 21 21 21 21 20 20 20 20 19 19 19 18 17 16 16 15 15 14 14 16 18 19 20 21 21 22 21 23 21 21
25 25 24 24 23 23 23 22 22 22 21 21 21 21 21 21 21 20 20 20 20 19 19 19 18 17 16 15 14 14 13 14 14 17 18 19 20 20 21 21 22 23 23
26 25 24 24 23 22 22 22 22 22 21 21 21 21 20 20 20 20 20 20 19 19 19 18 18 17 16 15 14 13 13 13 13 14 16 18 19 20 21 22 22 22 22
26 25 24 24 23 22 22 22 22 22 22 22 21 21 21 21 21 21 20 19 19 19 19 18 17 16 16 15 14 13 13 12 13 13 14 15 17 19 20 21 21 21 21
27 26 25 24 23 22 22 22 22 22 22 22 22 21 21 21 22 21 20 20 19 19 19 18 18 17 16 15 14 14 13 12 12 13 13 14 16 18 20 21 21 21 21
26 26 25 24 23 23 23 23 22 22 22 22 21 22 22 21 22 21 21 20 19 19 19 18 17 17 16 16 16 14 14 13 12 12 13 13 14 16 19 21 21 21 20
26 25 25 24 24 23 23 23 23 22 22 22 21 21 21 21 20 21 20 20 19 18 18 18 17 17 17 17 16 15 14 14 13 12 13 14 14 14 17 19 21 22 22
25 25 25 24 24 24 23 23 23 22 22 21 21 21 21 21 21 20 20 19 19 18 18 17 17 17 17 17 16 15 14 13 13 13 13 13 13 14 15 17 20 21 22
25 25 24 24 24 24 24 23 23 22 22 21 21 21 21 21 20 19 17 17 17 18 19 18 17 17 17 16 16 14 13 13 13 12 12 12 12 13 14 15 18 19 20
26 25 25 24 24 24 24 23 23 22 22 22 21 21 21 20 20 19 19 18 17 17 18 18 18 17 17 15 14 13 12 12 12 12 12 13 13 13 13 15 16 19 20
26 26 25 25 25 24 24 23 22 22 21 20 20 20 20 20 20 19 18 18 16 17 17 18 18 16 16 14 13 12 12 13 13 12 12 12 15 15 14 16 16 18 20
27 26 26 25 25 24 23 22 22 21 20 19 19 19 20 19 18 17 16 16 16 16 16 17 17 16 14 14 13 13 13 12 12 12 12 12 12 15 16 17 18 19 20
26 26 25 25 24 23 22 21 21 20 20 20 19 19 19 17 17 15 15 15 16 16 17 17 16 14 14 13 12 13 13 12 11 11 12 12 12 12 16 18 18 19 20
24 24 24 23 23 22 22 22 21 20 19 19 19 18 18 17 15 15 14 13 14 15 15 16 15 14 13 11 10 10 10 11 11 11 11 12 12 12 12 15 17 18 18
23 23 22 22 22 22 18 16 18 17 17 17 16 16 15 16 12 13 13 13 13 13 14 16 16 15 12 10 10 9 9 9 10 11 11 12 12 12 12 12 13 14 18
22 23 23 23 23 22 18 15 15 15 15 16 14 14 13 13 13 13 13 13 14 14 15 15 14 13 11 10 9 9 9 9 9 9 10 10 12 12 11 12 12 12 12
21 22 22 22 23 21 20 18 16 13 14 14 13 13 12 12 12 12 13 13 14 14 14 13 12 11 11 9 9 9 9 9 10 10 10 10 10 12 12 12 12 12 12
21 21 22 22 21 19 18 18 18 16 15 14 13 12 11 11 12 12 13 15 14 13 12 11 10 10 9 9 9 9 9 9 9 10 10 10 10 10 12 12 12 12 12
21 21 21 21 19 19 18 17 17 14 14 14 13 11 11 12 12 11 11 12 12 11 10 9 8 6 5 5 6 7 8 8 9 9 10 10 9 9 9 12 12 12 12
19 19 19 20 17 18 16 16 15 14 13 13 12 9 10 11 11 10 10 9 10 9 8 7 6 6 6 6 6 6 7 8 9 10 10 10 10 10 10 10 11 11 11
20 18 18 18 17 16 16 14 14 15 14 13 11 8 9 10 10 10 10 10 10 10 10 9 9 9 8 7 7 7 7 7 8 9 10 10 10 10 10 10 10 11 10
18 17 18 16 16 16 16 15 16 15 15 13 11 9 8 9 8 9 9 10 10 10 10 9 9 9 8 7 6 5 6 6 6 7 8 9 10 10 10 10 10 10 10
18 17 16 15 15 15 15 16 16 16 15 14 14 11 9 9 9 8 9 10 10 10 9 9 8 7 7 6 5 4 3 3 4 6 7 9 9 10 10 10 10 10 10
17 16 16 15 15 15 15 16 16 14 13 15 14 14 13 11 10 9 9 10 10 9 9 8 7 5 5 4 3 3 4 5 6 7 8 8 8 9 10 10 11 11 10
17 17 17 17 16 15 16 15 15 15 14 14 13 13 13 12 12 11 10 10 9 9 9 8 8 6 4 3 4 4 4 5 6 7 8 7 8 8 9 10 11 11 11
18 17 17 17 17 16 15 15 15 15 14 14 13 12 12 11 11 10 10 9 10 9 8 8 7 6 5 3 4 4 4 5 6 7 7 7 6 7 8 9 9 10 10
Height
801 803 806 808 810 812 814 815 816 816 816 816 815 815 814 812 811 810 809 807 806 806 805 804 803 801 799 797 794 791 786 783 772 759 759 756 756 756 755 756 754 751 756
798 800 802 805 807 809 811 812 813 813 813 813 812 811 810 809 807 807 805 804 802 801 800 800 798 797 796 794 791 787 782 776 769 753 751 748 747 745 744 745 742 742 749
795 796 798 802 804 806 808 809 810 810 809 809 808 807 806 805 803 801 801 800 799 798 797 795 794 793 792 789 786 782 777 771 762 756 745 741 739 738 736 735 734 738 744
789 792 794 798 801 803 805 806 806 806 806 805 804 804 802 801 799 796 796 796 795 794 793 791 790 788 787 785 781 777 772 766 758 754 746 737 733 730 729 728 729 731 737
784 788 791 794 797 799 801 801 802 802 802 801 800 799 797 796 794 792 792 792 791 789 787 786 785 783 781 779 776 771 767 763 757 749 743 736 729 724 721 719 720 720 722
781 783 786 791 792 794 796 796 796 797 797 797 797 795 793 792 791 790 789 788 786 784 782 780 780 778 776 773 770 766 764 760 753 745 737 731 724 721 716 713 711 714 715
778 781 782 786 788 789 790 790 791 793 794 793 792 791 789 789 789 786 785 784 782 779 778 776 773 772 770 767 764 760 756 752 747 738 728 723 717 713 711 708 705 706 707
773 776 778 780 782 784 784 785 787 788 788 787 786 785 784 785 783 784 782 780 777 774 773 771 768 767 764 760 757 754 749 744 738 729 718 709 704 702 700 700 699 698 701
767 769 772 775 777 778 779 781 783 784 783 782 781 779 780 780 780 780 779 778 776 774 769 767 765 762 759 757 752 748 742 734 726 714 701 690 685 686 689 692 691 695 693
760 762 766 768 771 773 774 777 778 778 778 777 776 776 776 776 774 775 773 769 769 769 767 764 760 757 755 752 748 744 739 731 717 700 683 666 661 664 671 677 680 683 687
753 757 760 763 765 767 769 771 772 773 773 773 774 773 772 773 771 769 770 768 766 766 764 760 757 754 752 749 745 742 738 728 715 701 683 666 653 653 656 662 668 672 678
749 752 755 758 760 762 765 768 770 769 770 769 771 769 768 767 768 765 767 766 767 764 761 758 755 752 749 746 742 738 734 725 714 702 688 670 659 652 650 655 659 665 670
747 750 753 755 757 759 761 762 764 766 765 767 767 765 766 764 762 766 766 767 764 760 757 755 752 749 747 743 740 735 731 725 716 706 693 679 668 657 647 651 656 660 664
745 748 750 752 753 756 756 753 754 760 761 762 762 764 764 763 763 764 764 764 760 756 753 750 749 748 746 744 739 736 732 726 721 712 698 688 677 662 653 652 653 656 660
749 748 751 751 750 750 754 749 751 752 759 761 762 764 764 764 763 762 761 759 756 754 750 748 748 747 747 746 742 738 734 728 721 713 704 695 684 676 667 661 657 652 655
747 747 749 749 749 747 751 754 753 756 758 759 761 762 763 763 762 760 758 757 756 753 750 750 749 749 750 749 745 741 737 731 726 720 712 702 696 690 681 673 668 665 664
749 747 746 746 745 747 749 752 755 758 759 759 760 760 761 762 761 759 755 754 754 752 752 752 753 753 753 751 747 744 740 736 730 721 713 709 703 698 690 684 680 679 671
745 742 743 744 745 747 751 753 754 756 758 760 760 761 761 761 758 757 753 751 754 754 754 755 757 756 754 753 750 746 742 738 734 729 723 718 711 704 700 697 692 688 684
739 739 741 743 745 747 751 753 754 756 757 760 761 761 761 760 758 757 757 757 757 757 757 759 760 758 756 754 752 749 745 740 736 733 729 725 718 713 708 704 698 693 693
739 740 741 741 744 748 752 753 755 757 759 760 761 762 760 760 759 759 761 760 760 760 759 760 760 759 757 755 753 751 748 746 741 736 733 729 725 722 718 714 710 706 701
735 738 742 744 746 748 751 753 754 755 756 758 761 762 762 760 761 761 762 762 761 760 760 760 760 759 757 757 755 753 751 749 746 742 738 735 730 726 724 720 714 714 711
736 739 740 744 747 748 750 751 751 753 753 756 759 761 761 761 761 762 762 762 762 761 760 761 761 760 758 758 756 753 752 750 748 745 743 739 735 732 729 726 722 719 715
735 739 741 743 744 746 748 748 748 749 750 752 753 757 759 761 761 762 763 762 761 761 761 761 762 761 760 760 758 755 755 753 751 748 745 743 740 736 732 728 725 722 720
739 740 741 743 744 745 746 745 745 748 750 750 751 753 755 757 759 761 762 761 761 762 761 762 762 762 760 759 758 756 755 753 752 750 747 745 742 739 737 733 731 728 726
737 737 738 740 740 742 743 744 745 745 747 749 751 753 755 756 757 759 760 761 762 762 762 763 763 762 762 760 758 758 757 755 754 752 750 748 747 743 741 738 736 734 732
733 736 737 737 738 739 740 742 743 744 746 748 750 752 754 756 757 759 760 761 761 762 762 763 764 764 762 761 760 760 758 757 756 755 753 752 749 748 746 744 742 740 738
Wind_Speed
18 15 10 7 8 9 7 7 8 9 9 11 13 14 16 18 18 15 14 16 15 10 11 11 10 12 16 17 19 21 24 24 19 31 31 30 30 34 34 28 32 38 26
18 15 12 9 9 7 7 7 8 9 10 11 13 15 17 18 18 16 15 15 15 13 11 11 10 9 13 14 18 22 24 29 31 24 30 29 29 31 35 30 30 31 40
18 16 13 11 11 10 9 8 8 9 11 13 13 15 17 18 18 18 18 16 14 14 14 12 10 10 13 15 18 19 23 28 28 28 28 29 29 29 30 28 33 33 28
23 19 17 16 13 11 10 10 9 12 12 13 15 16 17 18 19 21 18 16 15 16 16 14 14 12 13 14 16 19 22 26 26 27 26 28 26 30 30 25 25 33 33
20 15 14 14 14 13 13 12 13 13 14 14 16 17 17 16 19 5 8 13 15 18 18 17 16 16 18 18 22 24 24 24 24 23 24 25 25 27 25 25 27 31 33
19 18 15 15 16 16 15 13 14 13 11 14 14 15 15 16 18 16 16 17 17 19 21 18 18 18 19 21 27 24 27 26 28 26 26 24 25 26 31 30 24 23 10
18 16 16 16 15 16 16 16 13 10 13 14 15 17 17 18 17 16 14 16 21 20 20 20 24 21 21 26 25 28 28 35 31 36 31 31 30 31 29 31 30 25 26
23 20 19 18 18 18 19 16 12 12 14 16 17 18 19 21 20 17 18 22 21 22 22 25 23 21 24 26 24 26 28 36 35 36 37 39 37 33 34 30 31 32 30
23 23 21 20 20 20 19 16 13 14 16 17 17 20 21 20 16 15 11 13 22 26 22 23 18 19 23 16 20 21 32 36 42 45 46 46 46 42 40 26 27 28 18
26 24 22 21 20 19 18 15 12 14 17 19 19 20 16 9 19 18 15 15 22 30 23 19 17 16 17 19 17 22 24 36 43 50 45 38 31 38 42 44 37 22 23
24 22 22 22 20 17 13 11 12 18 19 16 18 18 16 17 19 12 13 12 19 20 20 18 12 16 19 18 19 18 27 35 40 41 40 36 19 24 33 44 39 27 27
17 16 16 18 17 13 11 8 14 12 15 18 16 17 19 10 17 17 12 12 14 19 18 16 14 17 13 21 16 14 24 32 35 34 35 38 33 15 24 29 36 36 31
6 9 11 8 9 9 8 5 11 16 19 14 12 16 12 7 12 3 12 14 17 18 16 15 13 8 17 21 14 12 21 30 31 32 30 33 39 33 12 23 26 36 36
6 7 7 7 7 11 14 15 17 10 2 4 8 8 9 9 1 10 12 12 11 11 14 14 9 8 18 21 22 20 19 23 25 26 31 33 36 39 34 21 14 24 24
8 5 8 10 12 17 2 7 3 4 2 3 4 8 7 7 8 13 14 16 15 14 16 12 6 12 16 19 22 24 25 26 26 28 28 30 32 36 34 34 25 19 15
6 9 9 9 11 3 9 7 7 2 4 5 6 6 5 8 11 11 11 12 11 14 13 12 16 17 15 16 18 19 20 24 27 25 26 31 26 28 30 32 29 27 19
7 5 5 6 6 1 4 4 4 0 2 3 5 7 9 9 9 10 10 10 9 14 14 17 16 14 12 13 16 18 19 21 21 29 28 28 30 23 25 27 29 24 27
6 5 5 5 1 4 4 2 2 3 2 1 1 4 6 8 12 13 14 10 8 13 14 15 13 14 15 16 17 19 21 21 21 23 23 24 25 28 23 18 19 20 23
3 3 5 2 4 4 3 3 2 3 3 1 3 3 2 6 10 12 13 11 8 9 11 10 9 10 11 13 14 16 18 24 24 21 21 22 25 23 25 21 22 23 19
1 3 3 4 9 6 4 4 2 1 1 3 2 5 4 6 8 9 8 8 7 7 6 6 6 10 14 17 17 15 18 17 22 23 21 21 21 25 21 23 20 21 21
5 6 1 7 7 5 5 4 5 5 5 4 4 3 4 5 6 5 4 4 4 5 6 7 7 7 9 12 14 16 16 17 18 20 21 20 23 21 21 23 22 19 22
4 6 4 4 7 8 8 11 6 6 4 5 5 4 5 3 2 1 2 2 3 3 6 7 8 9 11 12 12 13 14 14 19 21 19 20 22 20 20 18 20 20 21
5 3 5 8 8 3 5 7 7 5 6 6 6 10 9 6 2 1 2 2 1 5 6 7 8 9 10 10 11 11 11 9 12 14 18 18 20 19 22 19 20 19 20
4 5 5 3 4 4 8 9 3 3 4 5 5 4 3 8 6 1 3 1 4 4 5 5 6 8 9 9 9 10 13 14 15 15 18 17 18 21 19 20 19 22 19
7 8 7 7 10 11 10 9 10 7 5 8 5 4 4 4 3 2 3 2 2 3 4 4 5 5 7 9 11 10 9 10 14 16 15 17 17 17 20 19 19 19 21
5 6 9 9 9 7 7 8 10 6 7 7 7 6 5 5 4 3 3 2 1 3 2 3 3 3 4 7 9 9 8 7 10 13 15 15 15 17 18 18 17 18 17
Wind_Direction
185 182 185 192 203 205 223 241 261 277 283 284 286 288 292 296 296 296 293 286 286 299 309 320 320 341 336 335 334 330 312 320 286 278 273 268 263 262 259 253 257 244 251
186 183 180 192 198 212 225 246 265 278 281 283 282 284 289 293 293 295 295 293 297 297 297 305 305 325 328 331 329 323 325 320 327 275 275 268 260 262 264 257 252 257 258
187 177 182 192 196 212 227 246 262 271 273 277 285 290 293 294 293 285 278 285 285 283 286 294 291 307 302 308 317 324 323 324 336 317 295 269 261 259 262 258 246 243 242
183 187 184 188 198 211 228 242 255 267 273 284 292 293 292 286 284 279 279 273 278 276 282 283 279 271 279 302 313 322 326 326 327 323 306 300 265 258 253 251 238 234 217
184 178 180 185 195 206 224 236 248 263 272 282 287 287 289 290 291 287 286 282 279 280 277 274 274 268 270 292 305 308 318 320 313 310 301 296 288 260 245 242 234 231 230
179 187 188 197 196 206 224 235 242 256 279 290 296 291 292 293 295 308 306 299 290 282 281 275 274 276 286 288 302 293 310 311 305 301 291 285 278 279 260 244 234 224 223
195 198 194 201 203 213 224 232 235 262 278 284 291 291 290 288 293 287 293 297 296 285 285 282 281 283 296 295 300 298 305 312 305 289 280 277 273 264 264 250 242 232 226
195 201 203 203 210 216 222 231 235 245 258 272 276 281 287 283 283 294 303 300 291 292 283 285 286 291 297 300 311 305 312 314 310 305 289 276 270 268 259 256 248 235 238
200 203 206 208 216 221 225 230 233 237 257 259 268 278 279 284 291 302 317 308 307 296 294 288 288 298 307 308 316 312 323 321 327 319 308 287 270 258 250 256 250 236 231
203 205 207 214 220 226 231 224 218 236 245 280 276 274 279 297 294 310 296 288 287 296 298 291 302 312 322 331 333 333 325 328 321 325 323 319 265 249 236 236 230 230 224
203 204 209 216 218 224 223 220 241 247 282 277 287 291 290 284 288 321 298 290 279 292 301 304 315 322 326 337 343 350 344 334 338 333 335 346 325 231 229 220 223 225 213
208 211 215 217 217 216 225 233 258 270 265 267 269 267 279 291 313 319 320 297 292 296 287 299 316 320 327 339 349 8 352 356 347 332 345 359 358 335 214 211 219 220 226
206 211 224 216 197 223 244 229 243 252 256 268 255 265 288 353 352 42 354 308 306 306 304 305 328 320 349 351 2 2 2 355 344 339 332 351 1 358 356 218 217 215 225
241 229 217 184 209 233 245 230 239 277 310 271 308 359 354 335 117 348 327 316 329 336 319 324 340 6 358 10 8 6 3 356 338 340 345 346 360 8 10 17 223 206 213
276 228 233 234 234 242 272 327 76 93 49 11 26 3 12 354 347 343 340 341 346 342 337 342 4 29 19 6 5 5 6 2 358 353 348 352 9 9 12 21 19 22 231
232 208 234 255 290 220 153 104 81 65 325 343 12 19 335 332 332 338 343 339 345 353 342 25 38 35 21 8 357 358 3 2 3 2 357 1 0 11 10 20 27 36 25
235 279 293 265 307 38 91 71 140 11 335 14 54 43 40 27 13 0 349 329 329 0 40 41 34 18 11 3 359 0 358 4 356 11 6 0 3 359 11 19 26 32 34
230 242 253 292 134 110 117 99 169 219 193 6 53 41 55 39 28 16 17 20 53 50 49 45 27 20 12 5 3 5 0 359 8 11 9 7 2 4 7 8 21 33 40
252 21 162 140 92 103 132 140 89 117 146 100 86 268 326 23 35 30 26 36 36 43 47 45 29 23 20 13 12 13 6 15 14 3 13 13 14 13 6 8 23 28 44
209 335 317 225 141 144 134 142 155 129 225 223 59 14 1 45 51 48 41 42 46 46 57 60 43 34 30 28 23 18 20 6 6 11 11 12 11 18 18 14 32 25 17
241 143 215 130 136 142 174 199 200 226 210 107 94 55 59 66 52 54 28 35 37 48 45 32 27 21 21 18 15 10 9 10 12 12 15 15 14 10 18 27 26 26 26
64 164 185 178 206 198 213 210 208 214 204 175 163 148 149 106 104 30 334 360 15 21 41 34 21 31 30 24 17 14 10 5 8 7 11 16 13 18 19 25 25 27 26
163 164 134 108 122 126 252 266 248 219 203 211 199 176 184 179 174 211 262 293 42 43 38 45 36 38 37 41 28 17 25 19 21 7 14 13 12 21 25 24 26 23 27
137 157 171 206 215 235 278 281 212 172 277 275 219 235 227 164 161 132 216 276 71 65 56 59 69 55 50 44 38 27 37 36 36 26 25 21 15 22 27 24 35 32 30
223 205 213 237 211 215 243 236 271 235 215 228 222 221 220 216 215 180 141 132 117 114 98 87 66 69 60 52 44 41 43 44 34 27 33 28 26 24 22 22 27 35 31
241 249 257 257 262 259 271 271 259 241 231 225 224 224 228 226 204 182 182 176 154 133 116 96 104 93 75 29 29 29 34 47 51 48 40 26 29 26 24 23 26 24 34